Location: *
(46.3500°N, 10.9000°E)
Time: 21:31:31
(UTC+00:00)

A-11 Canister half - Pass Details

Date: 28 April 2021
Orbit: 1526 x 1682 km, 47.3° (Epoch: 13 May)

Event Time Altitude Azimuth Distance (km) Brightness Sun altitude
Rises 10:25:06 0° 191° (SSW) 4,770 12.0 56.3°
Reaches altitude 10° 10:28:53 10° 179° (S) 3,814 11.8 56.6°
Maximum altitude 10:36:13 25° 129° (SE) 2,868 11.4 57.0°
Drops below altitude 10° 10:43:43 10° 80° (E) 3,915 11.3 57.3°
Sets 10:47:38 0° 68° (ENE) 4,922 11.6 57.5°
